User: anonymous   Login
Location: Newark
(41.7300°N, 13.7500°E)
Time: 04:13:29
(UTC+00:00)
Language:

LilacSat-2 - Orbit

View from above orbital plane
View from above orbital plane
View from above satellite
View from above satellite

Ground track
Ground track

The orbit data is extracted from the following two-line orbital elements,

1 40908U 15049K   20330.77803589  .00000479  00000-0  29817-4 0  9996
2 40908  97.4974 327.6829 0015699 177.7797 355.7778 15.14175929286401
Epoch (UTC): 25 November 2020 18:40:22
Eccentricity: 0.0015699
inclination: 97.4974°
perigee height: 512 km
apogee height: 534 km
right ascension of ascending node: 327.6829°
argument of perigee: 177.7797°
revolutions per day: 15.14175929
mean anomaly at epoch: 355.7778°
orbit number at epoch: 28640

The dashed part of the orbit path shows where the satellite is in the earth's shadow,  

DLR